Regional Weather Roundup
Issued by NWS

Home | Current Version | Previous Version | Graphics & Text | Print | Product List | Glossary On
Versions: 1 2 3 4 5 6 7 8 9 10 11 12 13 14 15 16 17 18 19 20 21 22 23 24 25 26 27 28 29 30 31 32 33 34 35 36 37 38 39 40 41 42 43 44 45 46 47 48 49 50
000
ASUS45 KCYS 301510
RWRWY

WYOMING REGIONAL WEATHER ROUNDUP
NATIONAL WEATHER SERVICE CHEYENNE WY
900 AM MDT TUE JUN 30 2015

NOTE:  "FAIR" INDICATES FEW OR NO CLOUDS BELOW 12,000 FEET
WITH NO SIGNIFICANT WEATHER AND/OR OBSTRUCTIONS TO VISIBILITY.

WYZ001-301600-
YELLOWSTONE NATIONAL PARK

CITY           SKY/WX    TMP DP  RH WIND       PRES   REMARKS
LK YELLOWSTONE   N/A     62  51  67 E5        30.39R
W YELLOWSTONE  NOT AVBL

$$
WYZ002>013-054>058-071-098>099-301600-
NORTHERN WYOMING

CITY           SKY/WX    TMP DP  RH WIND       PRES   REMARKS
JACKSON        FAIR      64  54  68 CALM      30.29S
CODY           FAIR      73  55  53 N3        30.14R
GREYBULL       FAIR      80  52  37 W5        30.03R
WORLAND        FAIR      82  54  37 CALM      30.03S
SHERIDAN       FAIR      72  57  59 NW10      30.05R
BUFFALO        FAIR      75  51  43 NW7       30.08R
GILLETTE       FAIR      75  57  53 NW3       30.02S
HULETT         FAIR      72  59  64 W7        30.03R
NEWCASTLE      FAIR      70  59  68 CALM      30.04S

$$
WYZ014>020-022>026-101>103-301600-
CENTRAL WYOMING

CITY           SKY/WX    TMP DP  RH WIND       PRES   REMARKS
BIG PINEY      FAIR      72  49  44 CALM      30.32S
PINEDALE       FAIR      70  46  43 CALM      30.32S
DUBOIS         FAIR      64  48  55 NW7       30.30S
LANDER         FAIR      72  51  47 W3        30.15S
RIVERTON       FAIR      77  50  38 W6        30.16S
CASPER         FAIR      76  45  33 SW13      30.13S
DOUGLAS        FAIR      71  52  50 NW6       30.12S

$$
WYZ021-027>030-104>119-301600-
SOUTHERN WYOMING

CITY           SKY/WX    TMP DP  RH WIND       PRES   REMARKS
EVANSTON       FAIR      68  48  48 CALM      30.33F
KEMMERER       FAIR      70  45  40 SW5       30.35S
FORT BRIDGER   SUNNY     77  45  31 NW5       30.35S
ROCK SPRINGS   FAIR      72  45  37 S5        30.29S
DIXON          FAIR      72  41  32 SE9       30.30F
RAWLINS        FAIR      73  46  38 S6        30.28F
SARATOGA       FAIR      70  46  43 SE10      30.31F
LARAMIE        FAIR      68  48  48 S6        30.31F
CHEYENNE       FAIR      80  52  37 NW6       30.21S
TORRINGTON     FAIR      70  55  59 VRB3      30.06F
PINE BLUFFS    FAIR      73  57  56 SW3       30.16S

$$



USA.gov is the U.S. government's official web portal to all federal, state and local government web resources and services.